{"data":{"norad_id":58523,"epoch":"2026-09-20T05:02:05.039520Z","epoch_age_seconds":172031,"freshness":"FRESH","line1":"1 58523U 23191R   26263.20978055 -.00000824  00000+0 -20420-4 0  9991","line2":"2 58523  43.0026  84.6323 0001090 273.8571  86.2156 15.27574912155179","mean_motion":15.27574912,"eccentricity":0.000109,"inclination_deg":43.0026,"raan_deg":84.6323,"arg_perigee_deg":273.8571,"mean_anomaly_deg":86.2156,"bstar":-2.042e-5,"rev_number":15517,"period_min":94.267062694468,"perigee_km":482.31646043922,"apogee_km":483.81220232946,"semimajor_km":6861.2013313843,"source":"CELESTRAK","updated_at":"2026-09-21T09:00:33.909632Z"}}